Location: Rounton
(54.4000°N, 1.3500°W)
Time: 14:59:52
(UTC+00:00)

Transit 2A Rocket - Pass Details

Date: 04 December 2021
Orbit: 584 x 918 km, 66.7° (Epoch: 21 January)

Event Time Altitude Azimuth Distance (km) Brightness Sun altitude
Rises 13:15:03 0° 306° (NW) 3,545 8.3 11.4°
Reaches altitude 10° 13:17:54 10° 317° (NW) 2,617 7.5 11.3°
Maximum altitude 13:23:17 31° 18° (NNE) 1,572 6.2 11.0°
Drops below altitude 10° 13:28:35 10° 79° (E) 2,581 7.5 10.7°
Sets 13:31:23 0° 90° (E) 3,488 8.2 10.6°
